sat.trackr.live / text

‹ back to catalog

MOZHAETS 4 (RS22)

NORAD 27939 · 2003-042A

PAYLOAD ACTIVE UNKNOWN

§ Identity

Operator
Country
CIS
Launch date
2003-09-27
Launch site
PLMSC
Launch vehicle
Mass (kg)
RCS (m²)
0.69

Purposes: comms

External: N2YO · Heavens-Above · Gunter

§ Orbital elements

Epoch: 2026-09-19T22:58:39.747072Z

Period
97.72 min
Inclination
98.3485°
Eccentricity
0.0010806
Mean motion
14.73605442 rev/d
Perigee alt
642.0 km
Apogee alt
657.2 km
Semi-major
7,027.7 km
B*
8.0150e-5
RAAN
90.0230°
Arg perigee
334.7065°
Mean anomaly
185.7707°
Rev number
22,950

§ Raw data

MOZHAETS 4 (RS22)1 27939U 03042A   26262.95740448  .00000468  00000+0  80150-4 0  99932 27939  98.3485  90.0230 0010806 334.7065 185.7707 14.73605442229505

JSON: /api/v1/satellites/27939 · /tle

For live sub-satellite position, see the globe view (requires WebGL).

§ Visibility from observer

Set your observer location to see the next 7 days of passes ≥ 10°. The values pass through the URL so the page stays shareable.

No JS? Fill the form by hand. The geolocation button needs JavaScript.

§ Radio — SatNOGS DB

ModeDescriptionDownlinkUplink
CW Mode U CW Beacon 435.352 MHz
DOKA Mode U FM Doka 435.353 MHz
CW PE0SAT - CW Beacon 435.353 MHz

3 transmitters · refreshed weekly from db.satnogs.org